Theta_e
336 336 336 335 335 334 333 333 333 333 333 333 333 332 331 329 326 322 318 316 316 315 315 314 314 314 313 313 313 312 312 312 313 313 314 314 314 315 316 316 316 317
336 336 335 335 334 333 333 333 333 333 333 332 332 331 330 327 324 320 316 315 314 314 314 314 313 313 313 313 312 312 313 313 313 313 313 313 314 315 315 316 315 315
336 335 335 334 334 333 333 333 333 333 333 332 331 330 329 326 324 319 315 314 314 313 314 313 313 313 313 313 313 313 313 313 313 313 313 314 315 315 315 315 314 314
335 334 334 334 334 333 333 333 332 332 332 331 330 329 327 326 324 318 314 314 314 313 313 313 313 313 313 313 313 312 312 312 313 313 314 315 315 315 315 314 313 313
334 334 334 333 333 332 332 332 332 331 331 330 329 327 326 324 322 316 314 314 313 313 313 313 313 313 313 313 312 312 312 312 313 313 314 314 314 314 313 313 313 313
333 333 333 332 332 332 331 331 331 330 329 328 326 325 323 321 317 314 313 313 313 313 313 313 313 313 313 313 312 313 312 312 312 313 313 313 313 312 312 312 313 312
333 332 332 332 332 331 331 330 330 328 327 326 324 323 320 316 314 314 313 313 313 313 313 313 313 313 312 312 312 312 311 311 312 312 312 312 311 311 311 311 311 310
332 332 331 330 330 329 328 328 327 326 324 321 319 318 316 314 313 313 313 313 313 313 313 313 312 312 312 311 311 310 310 311 311 311 311 311 310 310 311 310 309 308
330 330 328 327 326 325 324 324 323 321 318 316 315 314 313 313 313 313 313 313 313 313 313 313 312 312 311 311 311 310 310 310 310 310 310 310 310 310 309 309 308 308
327 325 324 323 322 322 321 321 320 317 314 313 314 313 313 313 312 313 313 313 313 313 313 312 312 311 311 310 310 310 309 309 309 309 309 309 309 309 308 307 307 306
323 323 322 321 320 320 321 318 315 313 313 313 314 313 313 313 313 313 313 313 313 313 312 311 311 310 310 310 309 309 309 308 308 309 309 308 307 307 306 305 305 304
322 321 320 319 320 319 317 314 312 313 313 313 313 313 313 313 313 313 313 313 313 312 311 310 310 309 309 308 308 308 308 308 308 309 308 307 305 304 304 303 302 302
320 319 319 319 318 315 313 312 313 313 313 313 313 314 313 312 313 313 312 312 312 311 309 309 308 308 308 308 308 308 308 308 308 307 306 304 303 302 301 301 301 301
319 318 318 317 314 312 312 313 313 313 313 313 313 313 312 312 312 312 311 311 310 309 308 308 308 308 308 308 308 307 307 306 306 304 303 302 301 300 300 300 300 300
317 316 315 313 311 312 313 313 313 313 313 313 312 312 312 312 311 311 310 309 308 308 308 308 307 307 307 307 306 305 304 304 302 301 300 299 299 299 299 299 299 299
315 313 311 311 311 312 312 312 313 313 313 312 312 312 312 311 310 309 308 308 308 307 307 307 307 306 305 304 303 303 302 301 300 299 298 298 298 298 298 298 298 298
316 313 310 311 312 312 312 312 312 312 312 312 312 312 311 309 308 308 307 307 307 306 307 306 305 304 303 301 301 301 300 299 298 297 297 297 297 298 298 298 298 298
317 312 310 310 312 312 312 312 312 312 312 312 312 311 310 308 307 307 306 306 305 306 306 305 303 302 300 300 300 299 298 297 297 296 297 297 297 297 298 298 298 298
313 311 310 310 311 311 312 312 311 311 311 311 311 310 308 307 306 305 305 305 304 305 304 303 302 300 299 298 298 297 296 296 296 296 296 297 297 297 298 298 298 298
311 309 310 310 310 311 311 311 311 311 311 311 310 308 306 305 304 303 303 303 304 303 303 302 301 299 298 298 298 297 296 296 296 296 296 296 296 297 297 298 298 298
310 309 309 310 310 310 310 310 310 310 310 309 308 305 303 302 301 301 301 302 303 303 302 302 301 299 299 299 299 299 297 296 295 295 295 296 297 297 297 297 297 297
310 309 309 310 309 309 308 308 308 308 308 307 305 302 300 299 299 299 299 301 302 302 302 302 301 299 299 300 300 300 298 296 295 295 296 296 297 297 297 297 297 297
309 310 310 310 309 308 307 307 307 306 306 306 303 299 297 298 297 297 299 301 302 303 302 302 301 300 300 300 300 300 298 296 295 295 296 297 297 297 297 297 297 297
310 310 310 309 308 308 307 307 307 306 306 304 300 296 296 297 296 296 298 301 302 303 302 302 302 302 301 300 299 299 297 295 295 296 296 296 297 297 297 297 297 297
311 310 309 308 308 308 308 308 307 306 306 303 297 295 296 296 295 296 297 299 301 302 302 301 302 302 302 301 299 297 296 295 295 295 296 296 296 296 297 297 297 297
310 309 309 309 309 308 308 307 306 307 306 301 296 295 295 295 295 295 296 297 298 299 299 299 299 300 300 299 297 295 294 294 294 295 295 295 296 296 296 297 297 297
Wind_Speed
23 23 24 24 24 23 22 21 20 19 18 17 16 15 14 13 11 9 7 6 6 7 7 8 8 8 7 8 8 9 9 10 10 11 11 10 10 9 8 9 8 8
23 24 24 25 24 22 21 20 19 18 17 17 16 15 14 13 10 9 7 6 7 8 8 8 7 7 7 7 7 7 8 8 8 8 8 7 7 6 6 7 8 8
25 24 24 24 23 22 21 21 20 19 17 16 16 15 15 14 11 9 8 8 9 8 8 7 6 6 6 5 5 5 5 6 6 6 5 5 5 5 6 7 9 10
25 25 24 23 22 22 21 21 20 19 18 18 17 17 16 14 12 10 10 10 9 7 6 5 5 4 3 3 4 3 4 4 5 5 5 4 4 5 7 8 10 12
25 24 23 22 22 21 21 21 20 19 19 19 18 17 16 14 13 12 11 10 8 6 4 4 3 2 1 2 3 3 4 5 6 5 5 5 5 6 7 9 12 13
23 22 22 22 21 21 21 20 20 20 19 19 17 16 15 14 14 12 10 8 7 5 4 4 3 2 1 1 3 4 5 6 5 5 5 5 6 7 8 10 12 13
22 21 21 22 22 21 21 21 21 20 19 18 16 15 15 14 13 11 8 6 5 6 5 4 3 1 1 2 3 4 4 4 3 4 5 5 6 7 9 11 12 14
22 21 21 21 21 21 21 21 20 19 17 15 14 15 15 13 11 7 6 6 6 6 5 4 3 2 2 4 4 3 3 3 3 4 5 6 7 9 11 12 14 16
21 21 21 20 20 19 19 18 17 14 11 12 14 15 14 11 9 7 7 8 7 6 6 4 3 2 2 3 3 3 3 3 3 4 5 8 9 10 12 13 16 17
20 20 20 19 18 17 16 15 12 10 13 15 15 14 12 10 8 8 9 9 8 7 6 4 3 2 1 1 2 3 4 4 4 5 7 9 10 11 12 14 16 17
19 18 17 15 15 14 13 10 9 14 17 16 14 12 10 8 7 9 10 9 8 7 5 4 4 3 2 1 2 3 4 5 6 8 9 10 11 12 12 13 14 15
17 16 15 14 13 11 9 9 15 18 17 14 12 11 8 7 7 8 10 9 8 6 5 4 4 3 2 2 3 4 6 7 9 10 10 11 12 12 12 12 13 15
16 16 15 14 11 10 13 19 21 18 15 13 11 8 7 6 7 8 10 9 7 6 5 5 4 4 3 3 5 7 8 9 10 11 10 11 12 12 12 14 15 17
16 15 15 11 12 18 21 23 21 16 14 12 9 7 6 6 7 9 9 8 7 6 6 6 5 5 5 6 7 8 8 10 11 11 11 12 13 13 15 16 17 19
17 14 12 13 20 21 20 21 19 15 13 10 8 7 6 6 9 10 8 8 8 7 7 7 6 6 6 7 8 8 10 11 12 13 13 14 14 15 16 18 19 21
14 13 14 20 22 19 17 17 17 15 13 10 9 7 5 7 10 10 9 9 8 8 8 7 7 8 8 9 10 11 12 13 14 14 15 15 15 16 17 19 21 22
10 12 17 22 21 18 16 15 15 15 13 12 10 7 6 9 10 10 10 9 8 8 8 8 9 11 11 12 13 13 14 15 15 16 16 16 16 17 19 21 22 22
12 15 21 24 22 18 16 15 14 14 13 12 10 7 7 10 10 10 10 9 9 9 9 11 12 13 13 14 15 15 15 16 16 17 17 17 18 19 20 21 22 22
15 20 24 24 22 20 18 16 14 14 13 12 10 7 9 11 10 10 11 10 10 11 12 14 15 15 16 17 17 16 16 16 17 18 18 19 19 20 20 20 20 21
18 21 23 22 21 20 18 17 16 15 14 12 9 8 10 12 11 11 12 12 12 13 14 16 16 16 18 18 18 17 16 16 16 17 18 20 21 21 20 19 19 20
21 22 21 21 19 17 17 17 18 17 14 12 9 9 12 13 13 12 13 14 14 14 16 17 16 16 16 16 16 15 15 14 15 16 17 19 20 20 19 19 19 20
21 21 21 19 18 18 18 19 19 17 15 13 11 12 14 14 14 14 14 15 15 15 16 17 16 14 13 13 13 13 13 13 14 15 17 18 18 18 18 18 18 19
22 21 20 19 19 20 21 21 19 16 14 13 13 15 15 15 16 15 15 15 16 15 16 17 16 12 11 11 11 11 11 12 14 15 15 16 16 17 17 17 18 18
21 21 21 21 21 21 20 18 16 14 13 13 15 16 17 16 16 17 17 16 16 15 15 16 15 12 9 9 9 9 9 11 13 14 14 15 15 16 16 16 17 17
22 23 23 23 22 20 18 17 15 13 12 13 15 16 17 17 16 17 18 17 16 15 14 14 14 13 10 8 8 9 9 11 12 13 13 14 14 14 15 15 16 16
23 23 23 22 21 19 18 17 15 13 13 15 17 17 17 18 17 17 18 17 16 15 14 13 13 13 11 9 8 9 10 11 11 12 13 13 13 12 13 14 15 15
Wind_Direction
196 193 191 191 194 197 200 204 209 212 216 223 229 238 246 254 259 253 245 237 230 226 226 228 230 234 242 249 257 264 268 272 276 279 286 292 295 299 300 301 307 314
196 195 195 195 197 201 206 210 214 218 224 230 237 245 252 257 256 249 244 232 221 217 218 222 225 231 240 252 265 273 277 279 281 286 294 297 300 308 314 320 328 334
194 196 197 198 200 203 206 210 216 222 228 235 242 249 255 256 254 250 242 229 222 216 215 221 226 233 246 261 274 280 280 280 286 297 307 309 315 328 334 338 342 344
192 194 196 198 201 204 207 212 217 223 229 236 243 250 254 253 248 243 234 227 223 215 211 218 226 240 258 270 274 275 280 289 299 315 328 328 339 352 350 347 346 349
193 194 197 201 204 207 211 215 221 226 231 236 242 248 250 247 242 237 229 221 215 206 196 189 196 217 252 276 286 296 312 317 322 341 360 2 2 1 353 350 349 353
193 196 200 205 208 212 216 221 226 231 234 239 243 244 242 238 236 230 220 212 201 183 156 150 159 171 209 317 334 338 342 341 349 12 23 23 18 5 355 354 354 355
195 200 205 211 214 218 223 227 231 234 238 241 240 235 231 228 226 219 205 191 172 151 138 141 143 128 12 350 358 2 358 358 13 25 20 21 21 10 4 2 360 1
200 206 212 218 220 222 226 228 231 233 235 233 222 215 216 216 213 201 176 155 145 139 133 129 118 79 14 359 1 3 4 10 15 14 12 18 18 14 11 8 4 4
206 211 214 217 219 222 223 224 226 224 212 199 195 198 203 202 193 175 156 147 141 136 132 124 108 73 33 10 358 353 359 9 13 12 18 22 21 19 16 10 5 2
206 207 209 210 212 215 217 220 217 191 172 175 183 189 192 189 178 163 152 147 143 140 136 132 122 106 83 18 359 4 359 356 4 22 30 29 27 25 19 10 4 1
198 201 205 208 211 216 221 216 176 156 163 174 179 182 181 174 164 155 148 146 145 142 139 136 131 126 126 85 31 17 3 6 26 40 43 38 33 29 20 13 8 7
195 201 206 211 220 223 209 165 146 153 168 174 174 176 167 152 152 149 145 147 147 143 141 136 131 129 124 90 51 30 23 34 47 51 49 43 41 38 31 25 25 24
199 206 214 222 215 178 149 142 145 158 170 167 166 167 150 143 152 150 147 149 148 143 138 132 128 124 106 77 55 42 40 50 58 59 58 56 54 53 48 44 42 41
205 214 224 217 166 143 140 143 148 160 168 164 162 156 143 145 156 155 154 150 145 141 135 129 126 116 94 75 62 53 54 63 68 70 70 69 67 63 60 56 52 50
209 213 206 166 145 145 150 152 155 165 171 167 165 158 150 154 156 156 155 149 143 138 133 129 123 107 89 76 70 70 75 80 82 81 79 77 74 70 65 61 57 55
198 188 165 147 146 154 161 160 162 170 174 175 174 170 164 160 157 155 151 146 143 138 135 132 116 99 87 81 85 89 92 91 89 87 84 80 77 72 67 63 60 57
191 177 155 149 154 160 162 163 164 168 175 181 181 177 167 161 158 156 151 145 143 141 136 127 110 97 92 94 100 102 98 94 90 88 86 82 77 73 68 64 60 56
188 168 153 153 160 163 163 165 168 173 180 186 188 184 169 163 161 156 150 145 143 140 131 118 107 99 99 105 109 105 97 92 90 87 85 82 77 74 70 67 62 56
174 160 154 158 164 167 169 172 178 185 190 196 198 183 163 161 160 155 149 143 140 137 127 116 108 104 106 107 105 100 95 91 89 86 84 81 77 73 71 69 63 56
171 162 159 163 167 170 175 181 190 195 198 203 200 170 153 154 153 149 145 142 140 136 127 116 109 109 110 105 100 96 93 90 88 86 84 81 76 72 68 66 62 56
169 162 162 167 169 171 175 181 191 195 192 194 185 156 145 144 142 141 141 140 138 134 126 116 110 114 115 110 105 99 94 91 89 86 85 82 77 72 67 63 60 57
162 158 163 167 165 166 166 169 179 183 180 179 167 147 140 137 135 136 138 139 138 134 127 117 112 115 118 116 113 107 101 96 92 90 88 85 80 75 69 64 60 57
157 159 165 165 162 161 158 158 165 167 164 162 152 142 138 137 134 133 135 140 139 135 129 123 118 118 117 114 115 114 107 99 97 98 95 89 83 77 70 65 60 57
161 166 167 164 163 162 158 158 161 156 148 147 146 142 138 136 133 131 133 140 142 138 135 131 129 129 125 123 125 125 115 104 104 105 101 93 86 78 71 66 62 58
169 169 166 164 167 168 166 166 164 157 149 147 147 144 138 135 133 131 133 138 143 144 143 141 140 141 145 145 142 138 129 119 115 110 102 94 87 80 74 68 63 59
171 168 167 170 172 172 172 173 174 172 165 156 152 146 139 136 136 134 133 135 140 145 147 147 147 149 155 158 150 141 135 129 120 109 98 90 84 80 76 69 63 59